User: anonymous   Login
Location: Ergnies
(50.0854°N, 2.0375°E)
Time: 06:55:26
(UTC+00:00)
Language:

Meteor 1-11 Rocket - Orbit

View from above orbital plane
View from above orbital plane
View from above satellite
View from above satellite

Ground track
Ground track

The orbit is defined by the following mean orbital elements,

1 05918U          26075.81847786 +.00000000 +00000-0 -48057-4 0 00004
2 05918  81.2350 114.9111 0057696 350.1440   9.8591 14.06300505    08
Epoch (UTC): 16 March 2026 19:38:36
Eccentricity: 0.0057696
inclination: 81.2350°
perigee height: 830 km
apogee height: 914 km
right ascension of ascending node: 114.9111°
argument of perigee: 350.1440°
revolutions per day: 14.06300505
mean anomaly at epoch: 9.8591°

The dashed part of the orbit path shows where the satellite is in the earth's shadow,  

DLR